Stations météo

réclame
Mon MeteoGroup
Gemini, Pays-Bas (6214): Température de l'air & dewpoint: 06.12.2019 07:00:00 - 12.12.2019 07:00:00 (CET)Gemini, Pays-Bas (6214): Vitesse du vent & gusts: 06.12.2019 07:00:00 - 12.12.2019 07:00:00 (CET)Gemini, Pays-Bas (6214): Direction du vent: 06.12.2019 07:00:00 - 12.12.2019 07:00:00 (CET)Gemini, Pays-Bas (6214): reduced air pressure: 06.12.2019 07:00:00 - 12.12.2019 07:00:00 (CET)Gemini, Pays-Bas (6214): visibility: 06.12.2019 07:00:00 - 12.12.2019 07:00:00 (CET)
Date & Time tt [°C] td [°C] ff [km/h] ff [knt] fx [km/h] fx [knt] dd ppp [hPa] vv [km]
12.12.2019 07:00:00 7,2 3,1 26 14 32 18 W 997,2 10
12.12.2019 06:00:00 6,7 4,1 29 16 43 23 SW 997,2 10
12.12.2019 05:00:00 6,3 4,2 37 20 43 23 SW 997,8 5
12.12.2019 04:00:00 6,8 4,3 39 21 43 23 SSW 998,1 10
12.12.2019 03:00:00 6,7 4,5 35 19 40 21 SSW 998,7 10
12.12.2019 02:00:00 6,7 4,6 34 18 43 23 SSW 999,5 10
12.12.2019 01:00:00 6,5 4,8 35 19 40 21 SW 1000,0 10
12.12.2019 00:00:00 6,7 4,7 34 18 40 21 SW 1000,2 10
11.12.2019 23:00:00 7,0 5,3 35 19 40 21 SSW 1000,8 10
11.12.2019 22:00:00 7,1 5,1 31 17 36 19 SSW 1001,2 10
11.12.2019 21:00:00 7,2 5,2 29 16 32 18 SSW 1001,6 10
11.12.2019 20:00:00 7,5 5,2 28 15 32 18 SSW 1001,9 10
11.12.2019 19:00:00 7,5 4,9 26 14 32 18 SSW 1002,0 10
11.12.2019 18:00:00 7,5 5,2 26 14 36 19 SSW 1002,1 10
11.12.2019 17:00:00 7,8 4,4 24 13 29 16 SW 1002,4 10
11.12.2019 16:00:00 7,7 4,5 26 14 32 18 SW 1002,8 10
11.12.2019 15:00:00 8,0 3,5 28 15 36 19 SW 1003,0 10
11.12.2019 14:00:00 8,0 3,7 29 16 36 19 SW 1003,7 10
11.12.2019 13:00:00 8,3 3,2 28 15 32 18 SW 1004,1 10
11.12.2019 12:00:00 8,4 3,4 18 10 29 16 WSW 1004,8 10
11.12.2019 11:00:00 8,4 2,9 16 9 29 16 WSW 1005,1 10
11.12.2019 10:00:00 8,6 2,7 24 13 29 16 W 1005,4 10
11.12.2019 09:00:00 8,5 2,9 29 16 36 19 W 1005,5 10
11.12.2019 08:00:00 8,7 3,1 34 18 40 21 W 1005,2 10
11.12.2019 07:00:00 8,8 3,8 41 22 43 23 W 1005,2 10
11.12.2019 06:00:00 9,1 4,1 39 21 43 23 W 1005,0 10
11.12.2019 05:00:00 9,4 4,7 42 23 47 25 W 1004,5 10
11.12.2019 04:00:00 9,2 6,2 41 22 50 27 W 1003,9 10
11.12.2019 03:00:00 9,0 6,7 44 24 76 41 WSW 1004,1 10
11.12.2019 02:00:00 7,4 6,4 70 38 83 45 SW 1004,4 10
11.12.2019 01:00:00 7,6 5,3 78 42 86 47 SSW 1004,3 -
11.12.2019 00:00:00 7,6 4,6 76 41 90 49 SSW 1005,0 -
10.12.2019 23:00:00 7,4 4,0 85 46 97 53 SSW 1005,9 10
10.12.2019 22:00:00 7,1 3,9 83 45 94 51 SSW 1007,0 10
10.12.2019 21:00:00 7,1 3,3 85 46 90 49 SSW 1008,1 10
10.12.2019 20:00:00 6,8 3,0 87 47 90 49 SSW 1008,9 10
10.12.2019 19:00:00 6,3 3,7 81 44 86 47 SSW 1009,1 -
10.12.2019 18:00:00 6,6 3,0 78 42 83 45 SSW 1011,2 -
10.12.2019 17:00:00 6,8 2,6 78 42 83 45 SSW 1012,0 -
10.12.2019 16:00:00 6,8 2,8 72 39 76 41 SSW 1013,7 -
10.12.2019 15:00:00 6,7 2,6 65 35 68 37 SSW 1015,3 -
10.12.2019 14:00:00 6,9 2,7 57 31 61 33 SSW 1016,8 -
10.12.2019 13:00:00 7,1 2,9 52 28 54 29 SW 1017,9 -
10.12.2019 12:00:00 7,6 2,9 46 25 54 29 SW 1019,1 -
10.12.2019 11:00:00 7,7 2,9 41 22 47 25 SW 1020,1 -
10.12.2019 10:00:00 8,1 0,8 35 19 40 21 SW 1020,4 -
10.12.2019 09:00:00 7,8 -0,2 26 14 32 18 SW 1020,1 -
10.12.2019 08:00:00 7,8 -0,7 15 8 25 14 WSW 1020,1 -
10.12.2019 07:00:00 7,8 -2,2 18 10 29 16 WNW 1020,5 -
10.12.2019 06:00:00 7,6 -1,0 21 11 36 19 NW 1020,2 -
10.12.2019 05:00:00 7,2 1,1 21 11 36 19 NW 1020,1 -
10.12.2019 04:00:00 7,7 -2,9 24 13 36 19 NNW 1019,6 -
10.12.2019 03:00:00 7,6 -1,0 26 14 47 25 NW 1019,0 -
10.12.2019 02:00:00 7,1 0,5 44 24 50 27 NNW 1018,2 -
10.12.2019 01:00:00 7,7 -1,1 42 23 54 29 N 1016,7 -
10.12.2019 00:00:00 6,4 0,5 67 36 68 37 NNW 1016,2 -
09.12.2019 23:00:00 7,2 0,9 57 31 61 33 N 1014,9 -
09.12.2019 22:00:00 7,7 -1,0 57 31 61 33 N 1013,5 -
09.12.2019 21:00:00 7,8 -1,8 61 33 65 35 N 1011,9 -
09.12.2019 20:00:00 7,6 0,9 63 34 68 37 N 1010,4 -
09.12.2019 19:00:00 7,7 0,0 67 36 68 37 NNW 1008,6 -
09.12.2019 18:00:00 7,8 0,4 61 33 76 41 N 1007,0 -
09.12.2019 17:00:00 7,4 0,9 65 35 68 37 N 1005,0 -
09.12.2019 16:00:00 8,5 1,1 65 35 68 37 N 1002,5 10
09.12.2019 15:00:00 8,6 1,8 72 39 72 39 N 1000,5 10
09.12.2019 14:00:00 8,9 2,7 61 33 65 35 N 998,2 10
09.12.2019 13:00:00 8,7 3,4 55 30 54 29 N 996,4 10
09.12.2019 12:00:00 8,3 4,9 34 18 43 23 NNW 994,6 7
09.12.2019 11:00:00 7,7 4,4 28 15 43 23 NNW 993,4 8
09.12.2019 10:00:00 7,9 4,4 34 18 36 19 NW 992,0 10
09.12.2019 09:00:00 8,6 4,8 37 20 43 23 W 991,0 10
09.12.2019 08:00:00 8,8 4,3 39 21 43 23 W 990,3 10
09.12.2019 07:00:00 8,8 3,9 42 23 47 25 W 989,8 10
09.12.2019 06:00:00 8,9 4,0 44 24 54 29 W 989,5 10
09.12.2019 05:00:00 8,9 3,8 52 28 61 33 WSW 989,4 10
09.12.2019 04:00:00 9,0 3,7 54 29 61 33 WSW 989,9 10
09.12.2019 03:00:00 8,9 3,3 52 28 58 31 WSW 989,9 10
09.12.2019 02:00:00 8,8 3,0 57 31 61 33 WSW 990,1 10
09.12.2019 01:00:00 8,9 3,5 59 32 61 33 W 990,3 10
09.12.2019 00:00:00 9,0 3,3 59 32 65 35 W 990,4 10
08.12.2019 23:00:00 8,9 3,0 61 33 68 37 W 990,5 10
08.12.2019 22:00:00 9,5 3,6 55 30 68 37 WSW 990,5 10
08.12.2019 21:00:00 9,6 2,7 67 36 68 37 W 991,3 10
08.12.2019 20:00:00 9,7 2,9 67 36 72 39 W 991,6 10
08.12.2019 19:00:00 10,0 3,1 65 35 72 39 W 991,7 10
08.12.2019 18:00:00 10,0 3,1 67 36 72 39 W 992,7 10
08.12.2019 17:00:00 9,9 3,4 70 38 76 41 W 992,7 10
08.12.2019 16:00:00 9,9 4,2 70 38 72 39 W 993,0 10
08.12.2019 15:00:00 10,0 4,3 65 35 72 39 W 993,0 10
08.12.2019 14:00:00 10,2 5,9 68 37 68 37 W 993,0 10
08.12.2019 13:00:00 10,5 6,2 59 32 68 37 W 992,4 10
08.12.2019 12:00:00 10,8 7,5 55 30 65 35 W 992,2 10
08.12.2019 11:00:00 10,8 6,9 67 36 79 43 W 992,2 10
08.12.2019 10:00:00 10,2 9,7 72 39 79 43 SW 992,0 3,9
08.12.2019 09:00:00 9,4 8,7 78 42 79 43 SW 993,2 4,6
08.12.2019 08:00:00 9,6 8,3 81 44 83 45 SW 993,7 8
08.12.2019 07:00:00 9,1 8,3 76 41 83 45 SW 995,2 7
08.12.2019 06:00:00 8,7 8,1 76 41 79 43 SW 996,0 5
08.12.2019 05:00:00 9,7 8,0 76 41 79 43 SW 997,0 10
08.12.2019 04:00:00 9,6 8,0 67 36 76 41 SW 998,6 10
08.12.2019 03:00:00 10,2 7,3 70 38 76 41 SW 1001,0 10
08.12.2019 02:00:00 9,4 7,6 55 30 61 33 SW 1001,8 10
08.12.2019 01:00:00 9,6 7,1 54 29 58 31 SW 1003,3 10
08.12.2019 00:00:00 9,7 7,1 44 24 54 29 SW 1004,6 10
07.12.2019 23:00:00 10,0 6,4 48 26 50 27 SW 1005,7 10
07.12.2019 22:00:00 10,0 6,2 44 24 50 27 WSW 1006,8 10
07.12.2019 21:00:00 9,8 7,1 35 19 43 23 WSW 1007,6 10
07.12.2019 20:00:00 9,7 7,0 37 20 43 23 W 1008,1 10
07.12.2019 19:00:00 9,8 6,7 37 20 43 23 W 1008,4 10
07.12.2019 18:00:00 10,0 6,2 35 19 40 21 W 1008,5 10
07.12.2019 17:00:00 10,0 6,9 37 20 43 23 W 1008,6 10
07.12.2019 16:00:00 10,0 7,2 39 21 43 23 W 1008,0 10
07.12.2019 15:00:00 10,1 7,0 42 23 47 25 W 1007,9 10
07.12.2019 14:00:00 10,3 7,0 39 21 40 21 W 1007,8 10
07.12.2019 13:00:00 9,1 7,0 28 15 32 18 WNW 1007,2 4,8
07.12.2019 12:00:00 10,0 6,1 29 16 43 23 WNW 1007,3 10
07.12.2019 11:00:00 10,3 6,3 37 20 47 25 NW 1006,9 10
07.12.2019 10:00:00 10,1 7,2 46 25 50 27 WNW 1006,3 10
07.12.2019 09:00:00 10,1 7,3 37 20 47 25 WNW 1005,6 10
07.12.2019 08:00:00 10,2 7,7 39 21 43 23 WNW 1004,6 10
07.12.2019 07:00:00 10,3 7,8 37 20 47 25 WNW 1003,5 9
07.12.2019 06:00:00 10,4 7,8 39 21 47 25 WNW 1002,7 10
07.12.2019 05:00:00 10,4 7,4 46 25 47 25 WNW 1001,9 10
07.12.2019 04:00:00 10,5 7,6 44 24 54 29 WNW 1001,2 10
07.12.2019 03:00:00 10,5 7,4 44 24 47 25 WNW 1000,0 10
07.12.2019 02:00:00 10,5 7,5 42 23 50 27 WNW 999,1 10
07.12.2019 01:00:00 10,4 7,6 37 20 43 23 WNW 998,3 10
07.12.2019 00:00:00 10,6 7,8 41 22 43 23 WNW 997,6 10
06.12.2019 23:00:00 10,7 8,5 37 20 40 21 W 997,0 10
06.12.2019 22:00:00 10,6 8,4 29 16 36 19 WNW 996,6 10
06.12.2019 21:00:00 10,8 9,0 37 20 47 25 W 996,2 10
06.12.2019 20:00:00 10,8 10,5 41 22 50 27 SW 996,5 6
06.12.2019 19:00:00 10,1 9,9 46 25 54 29 SW 996,4 10
06.12.2019 18:00:00 10,3 10,1 44 24 54 29 SW 997,1 6
06.12.2019 17:00:00 10,0 9,8 50 27 61 33 SW 997,2 6
06.12.2019 16:00:00 9,4 9,0 59 32 61 33 SW 997,9 8
06.12.2019 15:00:00 9,2 8,8 55 30 65 35 SW 998,7 7
06.12.2019 14:00:00 9,4 8,9 59 32 61 33 SW 999,6 8
06.12.2019 13:00:00 8,7 8,4 59 32 61 33 SW 1001,0 6
06.12.2019 12:00:00 8,5 8,2 59 32 65 35 SW 1001,7 9
06.12.2019 11:00:00 8,5 8,1 57 31 61 33 SW 1002,6 6
06.12.2019 10:00:00 9,4 8,8 55 30 58 31 SW 1002,9 7
06.12.2019 09:00:00 10,2 9,2 52 28 54 29 SW 1003,2 9
06.12.2019 08:00:00 10,5 9,1 57 31 61 33 WSW 1003,6 10
06.12.2019 07:00:00 10,7 8,9 54 29 54 29 WSW 1004,0 10

tt = Température de l'air
td = dewpoint
ff = Vitesse du vent
fx = gusts
dd = Direction du vent
ppp = reduced air pressure
vv = visibility

stations d'obs. à proximité